This is the latest recevied weather packets stored in our database for station/object SP1BMW-13. If no packets are shown the sender has not sent any weather packets the latest 10 day(s).
| Time | Temp. | Humidity | Pressure | Rain* | Wind** | Luminosity | Snow |
|---|---|---|---|---|---|---|---|
| 1778127473 | 7.22° C | 83% | 1010.8 hPa | 0 mm | 0.45 m/s, 99° | 10 W/m² | - |
| 1778127414 | 7.22° C | 83% | 1011.1 hPa | 0 mm | 0 m/s | 9 W/m² | - |
| 1778127354 | 7.22° C | 83% | 1011 hPa | 0 mm | 1.34 m/s, 46° | 9 W/m² | - |
| 1778127293 | 7.22° C | 83% | 1010.8 hPa | 0 mm | 3.13 m/s, 48° | 9 W/m² | - |
| 1778127233 | 7.22° C | 83% | 1011 hPa | 0 mm | 0.89 m/s, 60° | 9 W/m² | - |
| 1778127174 | 7.22° C | 83% | 1011 hPa | 0 mm | 1.79 m/s, 37° | 9 W/m² | - |
| 1778127113 | 7.22° C | 82% | 1010.8 hPa | 0 mm | 0.89 m/s, 43° | 9 W/m² | - |
| 1778127053 | 7.22° C | 83% | 1010.8 hPa | 0 mm | 2.68 m/s, 28° | 11 W/m² | - |
| 1778126993 | 7.22° C | 83% | 1011 hPa | 0 mm | 2.68 m/s, 46° | 11 W/m² | - |
| 1778126936 | 7.22° C | 83% | 1010.9 hPa | 0 mm | 0.89 m/s, 13° | 10 W/m² | - |
| 1778126873 | 7.22° C | 83% | 1010.9 hPa | 0 mm | 1.79 m/s, 33° | 10 W/m² | - |
| 1778126814 | 7.22° C | 84% | 1010.8 hPa | 0 mm | 1.34 m/s, 31° | 12 W/m² | - |
| 1778126753 | 7.22° C | 84% | 1010.8 hPa | 0 mm | 1.34 m/s, 30° | 11 W/m² | - |
| 1778126693 | 7.22° C | 84% | 1011 hPa | 0 mm | 0.89 m/s, 3° | 8 W/m² | - |
| 1778126634 | 7.22° C | 83% | 1010.8 hPa | 0 mm | 1.34 m/s, 41° | 7 W/m² | - |
| 1778126573 | 7.22° C | 84% | 1010.7 hPa | 0 mm | 1.34 m/s, 47° | 7 W/m² | - |
| 1778126514 | 7.22° C | 84% | 1010.9 hPa | 0 mm | 0.45 m/s, 13° | 7 W/m² | - |
| 1778126454 | 7.22° C | 84% | 1010.8 hPa | 0 mm | 0.45 m/s, 30° | 7 W/m² | - |
| 1778126394 | 7.22° C | 83% | 1010.7 hPa | 0 mm | 0.45 m/s, 45° | 7 W/m² | - |
| 1778126334 | 7.22° C | 83% | 1010.8 hPa | 0 mm | 0.89 m/s, 128° | 7 W/m² | - |
| 1778126274 | 7.22° C | 83% | 1010.8 hPa | 0 mm | 0.89 m/s, 302° | 7 W/m² | - |
| 1778126214 | 7.22° C | 83% | 1010.7 hPa | 0 mm | 2.68 m/s, 42° | 6 W/m² | - |
| 1778126154 | 7.22° C | 83% | 1010.8 hPa | 0 mm | 0.45 m/s, 110° | 6 W/m² | - |
| 1778126094 | 7.22° C | 83% | 1010.8 hPa | 0 mm | 1.34 m/s, 46° | 6 W/m² | - |
| 1778126034 | 7.22° C | 83% | 1010.8 hPa | 0 mm | 1.79 m/s, 42° | 6 W/m² | - |
* Rain latest hour (hover to see other rain measurements)
** Current wind speed in m/s (hover to see current wind gust speed)